Location: Gauravaram
(16.6995°N, 80.5417°E)
Time: 08:29:02
(UTC+00:00)

Meteosat 1 Rocket2 - Pass Details

Date: 03 August 2024
Orbit: 484 x 2282 km, 28.3° (Epoch: 13 September)

Event Time Altitude Azimuth Distance (km) Brightness Sun altitude
Rises 13:37:47 0° 219° (SW) 3,416 7.1 -7.3°
Reaches altitude 10° 13:41:13 10° 204° (SSW) 2,191 5.9 -8.1°
Maximum altitude 13:44:51 20° 156° (SSE) 1,378 4.5 -8.9°
Enters shadow 13:47:20 13° 112° (ESE) 1,635 4.5 -9.4°
